www.pogodaiklimat.ru

Погода и климат >> Архив погоды >> Россия >> Волгоградская область >> Волгоград город


ПОГОДА в Волгограде город

  • Прогноз погоды в Волгограде город
  • Монитор погоды в Волгограде город
  • Климат города

АРХИВ ПОГОДЫ в Волгограде город

Время (UTC), дата Ветер
(напр.,м/с)
 
Видим.   Явления Облачность Т
(С)
Тd
(С)
f
(%)
Тe
(С)
Тes
(С)
Комфортность P
(гПа)
Po
(гПа)
Тmin
(С)
Tmax
(С)
R
(мм)
R24
(мм)
S
(см)
09 19.06 С 2 10 км 8/8 2000 м
[Cu med, cong]
+24.5 +6.7 32 +25 +28 комфорт 1009.4 996.2
12 19.06 СЗ 1 10 км 4/4 2000 м
[Cu med, cong]
+27.4 +5.6 25 +26 +35 жарко 1008.1 995.0
15 19.06 С 2 10 км 4/4 2000 м
[Cu med, cong]
+25.9 +5.3 27 +25 +26 комфорт 1007.6 994.4 +28.0
18 19.06 СЗ 1 10 км ясно +22.1 +6.6 37 +23 +23 комфорт 1008.4 995.1
21 19.06 СЗ 2 10 км ясно +20.4 +6.9 42 +22 +22 комфорт 1008.1 994.7
00 20.06 СЗ 1 10 км ясно +18.5 +7.1 47 +20 +20 1007.6 994.1
03 20.06 СВ 1 10 км ясно +21.5 +7.3 40 +22 +25 комфорт 1007.2 993.9 +16.6
06 20.06 СЗ 2 10 км ясно +26.2 +7.1 30 +26 +38 жарко 1006.7 993.5
09 20.06 10 км н/о +27.3 +5.8 25 +26 +32 жарко 1005.8 992.7
12 20.06 С 3 10 км 4/4 1000 м
[Sc diur, vesp]
+28.5 +7.7 27 +28 +34 жарко 1005.8 992.7
15 20.06 С 3 10 км 6/6 1000 м
[Sc diur, vesp]
+28.1 +8.8 30 +28 +29 жарко 1004.6 991.6 +29.2
18 20.06 штиль 0 10 км 10/10 1000 м
[Cb cap]
+23.6 +8.5 38 +24 +24 комфорт 1005.9 992.7
21 20.06 штиль 0 10 км 3/0
[Ci fib]
+20.2 +9.0 48 +21 +21 комфорт 1006.0 992.6
00 21.06 штиль 0 10 км 8/0
[Ac trans Ci fib]
+18.9 +9.3 54 +19 +19 1006.2 992.8
03 21.06 Ю 1 10 км ясно +22.7 +9.1 42 +24 +26 комфорт 1005.4 992.2 +18.0
06 21.06 Ю 2 10 км 3/0
[Ac lent Ci fib]
+26.7 +9.0 33 +27 +37 жарко 1004.8 991.7
09 21.06 ЮЗ 2 10 км 6/0
[Ac cast]
+29.3 +8.4 27 +29 +39 жарко 1003.7 990.7
12 21.06 ЮЗ 2
{11}
10 км в посл. час ливневой дождь 8/8 1000 м
[Cb cap]
+27.6 +8.6 30 +27 +30 жарко 1002.9 989.9
15 21.06 СЗ 2
{11}
10 км 8/8 1000 м
[Cb cap]
+24.7 +10.5 41 +26 +26 жарко 1002.6 989.4 +30.0 0.0
18 21.06 С 1 10 км {ливн. осадки} 6/0
[Ac lent Ci fib]
+22.1 +12.3 54 +25 +25 комфорт 1003.0 989.8
21 21.06 СЗ 3 10 км 4/0
[Ci fib]
+19.8 +12.9 64 +22 +22 комфорт 1003.1 989.8
00 22.06 СЗ 3 10 км 4/0
[Ci fib]
+19.0 +12.8 67 +20 +20 1003.2 989.8
03 22.06 СЗ 1 10 км 1/0
[Ci fib]
+20.6 +13.1 62 +24 +26 комфорт 1003.6 990.3 +17.8 0.0
06 22.06 ЮЗ 1 10 км 4/0
[Ac lent Ci fib]
+25.1 +12.9 47 +27 +37 жарко 1004.1 991.0
09 22.06 С 3 10 км 8/8 600 м
[Cb cap]
+22.5 +13.9 58 +26 +29 жарко 1004.7 991.5
12 22.06 СЗ 4-10
{10}
10 км {гроза} 8/3 1000 м
[Cu hum Ac lent Ci fib]
+26.6 +6.3 27 +26 +30 жарко 1004.5 991.4
15 22.06 С 3
{10}
10 км 9/3 1500 м
[Cu hum Ac lent Ci fib]
+23.8 +2.2 24 +23 +24 комфорт 1006.3 993.1 +27.0 1
18 22.06 СЗ 2 10 км 8/0
[Ac As]
+20.2 +3.8 34 +21 +21 комфорт 1008.9 995.5
21 22.06 СЗ 2 10 км 3/0
[Ac trans]
+17.2 +5.6 46 +18 +18 1010.3 996.7
00 23.06 СЗ 1 10 км 3/0
[Ac As]
+15.3 +4.5 48 +16 +16 1010.9 997.2
03 23.06 Ю 1 10 км 8/0
[Ac lent Ci fib]
+19.1 +4.7 39 +21 +22 комфорт 1011.1 997.6 +13.5
06 23.06 Ю 1 10 км 10/8 1500 м
[Sc Ac und]
+19.5 +7.0 44 +21 +22 комфорт 1011.8 998.3
09 23.06 ЮЗ 2 10 км {ливн. осадки} 8/5 1500 м
[Cb cap Ci fib]
+25.2 +3.8 25 +24 +32 комфорт 1009.9 996.7
12 23.06 ЮЗ 3
{12}
10 км {ливн. осадки} 6/3 2000 м
[Cu med, cong Ci fib]
+26.1 +4.2 24 +25 +31 комфорт 1008.8 995.7
15 23.06 ЮЗ 6-11
{13}
10 км 4/3 2000 м
[Cu med, cong Ac As Ci fib]
+24.5 +6.6 32 +25 +25 комфорт 1008.6 995.4 +26.8
18 23.06 Ю 1
{13}
10 км 8/6 1500 м
[Sc Ac As]
+21.2 +9.0 46 +22 +22 комфорт 1009.1 995.8
21 23.06 З 1 10 км 3/0
[Ac As]
+19.0 +9.2 53 +21 +21 комфорт 1008.5 995.1
00 24.06 Ю 1 10 км 6/0
[Ac As]
+17.8 +9.3 57 +19 +19 1007.0 993.5
03 24.06 Ю 2 10 км 10/0
[Ac As]
+18.6 +13.1 70 +20 +20 1005.7 992.3 +17.4
06 24.06 Ю 3 10 км 10/8 600 м
[Sc Ac As]
+20.3 +13.4 65 +23 +23 комфорт 1004.2 990.9
09 24.06 Ю 4-11
{11}
10 км в посл. час ливневой дождь 10/6 300 м
[Cb cap Ac trans]
+18.9 +15.6 81 +20 +22 1002.0 988.6
12 24.06 Ю 3
{15}
10 км в посл. час ливневой дождь 10/8 600 м
[Cb cap Ac trans]
+22.3 +16.9 71 +27 +28 душно 999.9 986.7
15 24.06 С 5-12
{13}
10 км {ливн. осадки} 9/4 600 м
[Sc diur, vesp Ac trans Ci fib]
+20.2 +12.1 60 +22 +22 комфорт 1003.4 990.1 +22.9 4
18 24.06 СЗ 3
{12}
10 км {ливн. осадки} 10/0
[Ac trans Ci fib]
+16.5 +9.4 63 +16 +16 1007.3 993.8
21 24.06 С 2 10 км ясно +14.7 +8.8 68 +14 +14 1008.6 995.0
00 25.06 СЗ 1 10 км 6/0
[Ci fib]
+12.7 +8.7 77 +13 +13 1009.9 996.1
03 25.06 С 1 10 км 10/0
[Ac trans Ci fib]
+15.4 +8.0 61 +16 +17 1011.2 997.5 +12.4
06 25.06 ЮВ 1 10 км 8/0
[Ac lent Ci fib]
+19.8 +8.5 48 +22 +29 комфорт 1011.9 998.4
09 25.06 З 1 10 км 8/8 1000 м
[Sc diur, vesp]
+22.0 +7.3 39 +23 +27 комфорт 1012.1 998.7
12 25.06 ЮЗ 2 10 км 6/6 1000 м
[Sc diur, vesp]
+24.8 +7.6 33 +25 +30 комфорт 1011.9 998.7
15 25.06 С 1 10 км 3/3 1000 м
[Cu hum]
+24.2 +6.8 33 +24 +26 комфорт 1012.4 999.1 +25.3
18 25.06 ЮЗ 2 10 км 6/0
[Ci]
+20.8 +7.5 42 +23 +23 комфорт 1013.8 1000.3
21 25.06 ЮЗ 2 10 км 8/0
[Ac lent Ci fib]
+20.4 +7.7 44 +22 +22 комфорт 1014.4 1000.9
00 26.06 ЮЗ 2 10 км 8/0
[Ac lent]
+19.4 +9.8 54 +21 +21 комфорт 1014.3 1000.8
03 26.06 ЮЗ 3 10 км {ливн. осадки} 6/6 1000 м
[Sc diur, vesp]
+19.2 +11.6 61 +20 +21 1014.6 1001.1 +18.2 0.0
06 26.06 ЮЗ 2 10 км {ливн. осадки} 4/0
[Ci]
+23.8 +13.0 51 +26 +37 жарко 1014.7 1001.4

 

Местоположение метеостанции Волгоград город (Волгоградская область, Россия): широта 48.67 долгота 44.45 высота над уровнем моря 116 м.

В архиве по умолчанию представлена погода в Волгограде город за последнюю неделю. Архивные данные за месяц целиком и за предыдущие месяцы, начиная с января 2011 года, Вы можете получить, выбрав интересующий диапазон дат из раскрывающегося списка и нажав кнопку "Ввод!".

Внимание! Время в таблицах - всемирное. Для получения местного времени необходимо прибавить поправку, которая в Волгограде город равна 3 ч.

Смотрите также архив погоды в соседних городах и на ближайших метеорологических станциях:

Погода в Волгограде (Волгоградская область, Россия) (14 км)
Погода в Калаче-на-Дону (Волгоградская область, Россия) (71 км)
Погода в Иловле (Волгоградская область, Россия) (77 км)
Погода в Малых Дербетах (Калмыкия, Россия) (84 км)
Погода в Нижнем Чире (Волгоградская область, Россия) (105 км)
Погода в Ольховке (Волгоградская область, Россия) (134 км)
Погода в Фролове (Волгоградская область, Россия) (138 км)
Погода в Черный Яр (Астраханская область, Россия) (140 км)
Погода в Кетченерах (Калмыкия, Россия) (150 км)
Погода в Котельниково (Волгоградская область, Россия) (151 км)

Пояснения к столбцам:

Ветер - указаны скорость ветра в м/с - средняя за 10 мин, порывы в срок и между сроками (в фигурных скобках) и направление, откуда дует ветер: С - северный, СВ - северо-восточный, В - восточный, ЮВ - юго-восточный, Ю - южный, ЮЗ - юго-западный, З - западный, СЗ - северо-западный.
Видимость - горизонтальная дальность видимости в метрах или километрах. При видимости от 1 до 10 км при отсутствии осадков обычно наблюдается дымка, при ухудшении видимости до 1 км и менее - туман. В сухую погоду видимость может ухудшаться дымом, пылью или мглою.
Явления - указаны атмосферные явления, наблюдавшиеся в срок или в последний час перед сроком; фигурными скобками обозначены явления, наблюдавшиеся между сроками (за 1-3 часа до срока); квадратными скобками обозначены град или гололедные отложения с указанием их диаметра в мм.
Облачность - указаны через наклонную черту общая и нижняя облачность в баллах и высота нижней границы облаков в метрах; квадратными скобками обозначены формы облаков: Ci - перистые, Cs - перисто-слоистые, Cc - перисто-кучевые, Ac - высококучевые, As - высокослоистые, Sc - слоисто-кучевые, Ns - слоисто-дождевые, Cu - кучевые, Cb - кучево-дождевые. Подробнее классификацию облаков см. в Атласе облаков (PDF).
T - Температура воздуха - температура, измеренная на высоте 2 м над землей.
Td - Температура точки росы - температура, при понижении до которой содержащийся в воздухе водяной пар достигнет насыщения.
f - Относительная влажность воздуха - влажноcть воздуха, измеренная на высоте 2 м над землей.
Te - Эффективная температура - температура, которую ощущает одетый по сезону человек в тени. Характеристика душности погоды. При расчете учитывается влияние влажности воздуха и скорости ветра на теплоощущения человека.
Tes - Эффективная температура на солнце - температура, которую ощущает человек, с поправкой на солнечный нагрев. Характеристика знойности погоды. Зависит от высоты солнца над горизонтом, облачности и скорости ветра. Ночью, в пасмурную погоду, а также при ветре 12 м/с и более поправка равна нулю.
P - Атмосферное давление - приведенное к уровню моря атмосферное давление.
Po - Атмосферное давление - измеренное на уровне метеостанции атмосферное давление.
Tmin - Минимальная температура - минимум температуры воздуха на высоте 2 м над землей.
Tmax - Максимальная температура - максимум температуры воздуха на высоте 2 м над землей.
R - Количество осадков - Количество выпавших осадков за период времени, мм. При наведении курсора мыши на число - период времени, за который выпало указанное количество осадков.
R24 - Количество осадков - Количество выпавших осадков за 24 часа, мм.
S - Снежный покров - Высота снежного покрова, см. При наведении курсора мыши на число - состояние снежного покрова и степень покрытия местности в баллах.